Regional Weather Roundup
Issued by NWS

Home | Current Version | Previous Version | Graphics & Text | Print | Product List | Glossary On
Versions: 1 2 3 4 5 6 7 8 9 10 11 12 13 14 15 16 17 18 19 20 21 22 23 24 25 26 27 28 29 30 31 32 33 34 35 36 37 38 39 40 41 42 43 44 45 46 47 48 49 50
000
ASUS43 KOAX 071110
RWRNE

WEATHER ROUNDUP FOR NEBRASKA
NATIONAL WEATHER SERVICE OMAHA NE
500 AM CST WED DEC 07 2016

NOTES: SATELLITE DATA IS BEING USED TO AUGMENT CLOUD COVER ABOVE
       12000 FEET.
       "FAIR" INDICATES FEW OR NO CLOUDS BELOW 12,000 FEET WITH NO
       SIGNIFICANT WEATHER AND/OR OBSTRUCTIONS TO VISIBILITY.

  * THESE STATIONS DO NOT REPORT WEATHER SUCH AS RAIN...SNOW OR FOG.

NEZ001>004-019>022-054>056-071200-
NEBRASKA PANHANDLE

CITY           SKY/WX    TMP DP  RH WIND       PRES   REMARKS
SCOTTSBLUFF    LGT SNOW  10   5  80 N10       30.13R WCI  -4
ALLIANCE       LGT SNOW   9   4  80 N13       30.11R WCI  -7
CHADRON        CLOUDY     6  -3  66 NW13      30.20R WCI -10
KIMBALL        LGT SNOW  10   8  90 N7        30.03R WCI  -1
SIDNEY         LGT SNOW  10   6  84 N14       30.08R FOG     WCI  -6
$$

NEZ057>060-069>072-079>082-071200-
SOUTHWEST NEBRASKA

CITY           SKY/WX    TMP DP  RH WIND       PRES   REMARKS
NORTH PLATTE   CLOUDY    13   2  61 N13       30.17S WCI  -2
IMPERIAL       LGT SNOW  13   8  81 NE14      30.10F WCI  -2
LEXINGTON      CLOUDY    17   4  56 N9        30.20R WCI   5
MCCOOK         LGT SNOW  16  12  84 NE13      30.18R FOG     WCI   2
OGALLALA       CLOUDY    15   5  64 NE7       30.14R WCI   5
$$

NEZ005>010-023>029-035>040-094-071200-
NORTH CENTRAL NEBRASKA

CITY           SKY/WX    TMP DP  RH WIND       PRES   REMARKS
VALENTINE      CLOUDY     7  -3  64 NW12      30.19R WCI  -8
AINSWORTH      CLOUDY     9   1  68 NW16      30.17S WCI  -8
BROKEN BOW     CLOUDY    13   2  61 NW13      30.19R WCI  -2
O`NEILL        CLOUDY    10   2  70 NW16      30.20F WCI  -7
ORD            CLOUDY    12   1  61 NW14      30.20R WCI  -3
THEDFORD       CLOUDY    10   2  67 NW9       30.17R WCI  -2
$$

NEZ041-046>049-061>064-073>077-083>087-071200-
SOUTH CENTRAL NEBRASKA

CITY           SKY/WX    TMP DP  RH WIND       PRES   REMARKS
GRAND ISLAND   CLOUDY    15   5  64 N14       30.22R WCI   0
AURORA         CLOUDY    16   6  64 N17       30.20R WCI   0
HASTINGS       CLOUDY    17   5  59 N16       30.20R WCI   2
HEBRON         CLOUDY    22   9  58 N12       30.21R WCI  10
HOLDREGE       CLOUDY    17   4  56 N15       30.19R WCI   2
KEARNEY *      CLOUDY    16   1  53 N16       30.21R WCI   0
YORK           CLOUDY    16   7  67 N14       30.20S WCI   1
$$

NEZ011>018-030>034-042>045-071200-
NORTHEAST NEBRASKA

CITY           SKY/WX    TMP DP  RH WIND       PRES   REMARKS
NORFOLK        CLOUDY    11   2  67 NW16      30.19R WCI  -6
ALBION         CLOUDY    13   3  65 NW23      30.18F WCI  -7
BLAIR          PTCLDY    16   9  74 NW9       30.19S WCI   4
FREMONT        PTCLDY    14   9  78 NW10      30.21S WCI   2
TEKAMAH        CLOUDY    16   7  67 NW12      30.23R WCI   3
WAYNE          CLOUDY    11   5  76 NW8       30.20S WCI   0
$$

NEZ050>053-065>068-078-088>093-071200-
SOUTHEAST NEBRASKA

CITY           SKY/WX    TMP DP  RH WIND       PRES   REMARKS
LINCOLN        PTCLDY    19   9  65 NW12      30.24R WCI   7
OMAHA EPPLEY   MOCLDY    17   8  67 NW12      30.22R WCI   4
BEATRICE       CLOUDY    24  13  64 N8        30.20S WCI  14
FALLS CITY     MOCLDY    24  14  65 NW9       30.20R WCI  14
NEBRASKA CITY  PTCLDY    21   8  56 N9        30.20R WCI  11
PLATTSMOUTH    CLEAR     18   7  61 NW10      30.20F WCI   6
$$

NEZ044-045-051>053-067-071200-
OMAHA AREA

CITY           SKY/WX    TMP DP  RH WIND       PRES   REMARKS
OMAHA EPPLEY   MOCLDY    17   8  67 NW12      30.22R WCI   4
BLAIR          PTCLDY    16   9  74 NW9       30.19S WCI   4
FREMONT        PTCLDY    14   9  78 NW10      30.21S WCI   2
MILLARD        PTCLDY    19   8  64 NW10      30.22S WCI   7
OFFUTT AFB     PTCLDY    18   8  64 NW6       30.21S WCI  10
PLATTSMOUTH    CLEAR     18   7  61 NW10      30.20F WCI   6
WAHOO          FAIR      16   8  70 NW10      30.22R WCI   4
$$



USA.gov is the U.S. government's official web portal to all federal, state and local government web resources and services.